owner,sensor,date,latitude,longitude,relative_humidity,qcFlag 
COMPS,ioos:station:USF.COMPS:ARP:1,2017-04-01T00:00:00Z,28.4330,-82.6670,85.04,1111122 
COMPS,ioos:station:USF.COMPS:ARP:1,2017-04-01T00:06:00Z,28.4330,-82.6670,85.04,1111122 
COMPS,ioos:station:USF.COMPS:ARP:1,2017-04-01T00:12:00Z,28.4330,-82.6670,86.53,1111122 
COMPS,ioos:station:USF.COMPS:ARP:1,2017-04-01T00:18:00Z,28.4330,-82.6670,87.61,1111122 
COMPS,ioos:station:USF.COMPS:ARP:1,2017-04-01T00:24:00Z,28.4330,-82.6670,88.07,1111122 
COMPS,ioos:station:USF.COMPS:ARP:1,2017-04-01T00:30:00Z,28.4330,-82.6670,88.54,1111122 
COMPS,ioos:station:USF.COMPS:ARP:1,2017-04-01T00:36:00Z,28.4330,-82.6670,88.92,1111122 
COMPS,ioos:station:USF.COMPS:ARP:1,2017-04-01T00:42:00Z,28.4330,-82.6670,88.85,1111122 
COMPS,ioos:station:USF.COMPS:ARP:1,2017-04-01T00:48:00Z,28.4330,-82.6670,88.95,1111122 
COMPS,ioos:station:USF.COMPS:ARP:1,2017-04-01T00:54:00Z,28.4330,-82.6670,88.75,1111122 
COMPS,ioos:station:USF.COMPS:ARP:1,2017-04-01T01:00:00Z,28.4330,-82.6670,88.84,1111122 
COMPS,ioos:station:USF.COMPS:ARP:1,2017-04-01T01:06:00Z,28.4330,-82.6670,89.05,1111122 
COMPS,ioos:station:USF.COMPS:ARP:1,2017-04-01T01:12:00Z,28.4330,-82.6670,89.37,1111122 
COMPS,ioos:station:USF.COMPS:ARP:1,2017-04-01T01:18:00Z,28.4330,-82.6670,89.08,1111122 
COMPS,ioos:station:USF.COMPS:ARP:1,2017-04-01T01:24:00Z,28.4330,-82.6670,88.59,1111122 
COMPS,ioos:station:USF.COMPS:ARP:1,2017-04-01T01:30:00Z,28.4330,-82.6670,89.0,1111122 
COMPS,ioos:station:USF.COMPS:ARP:1,2017-04-01T01:36:00Z,28.4330,-82.6670,88.71,1111122 
COMPS,ioos:station:USF.COMPS:ARP:1,2017-04-01T01:42:00Z,28.4330,-82.6670,88.74,1111122 
COMPS,ioos:station:USF.COMPS:ARP:1,2017-04-01T01:48:00Z,28.4330,-82.6670,88.79,1111122 
COMPS,ioos:station:USF.COMPS:ARP:1,2017-04-01T01:54:00Z,28.4330,-82.6670,88.76,1111122 
COMPS,ioos:station:USF.COMPS:ARP:1,2017-04-01T02:00:00Z,28.4330,-82.6670,88.8,1111122 
COMPS,ioos:station:USF.COMPS:ARP:1,2017-04-01T02:06:00Z,28.4330,-82.6670,88.35,1111122 
COMPS,ioos:station:USF.COMPS:ARP:1,2017-04-01T02:12:00Z,28.4330,-82.6670,88.64,1111122 
COMPS,ioos:station:USF.COMPS:ARP:1,2017-04-01T02:18:00Z,28.4330,-82.6670,88.99,1111122 
COMPS,ioos:station:USF.COMPS:ARP:1,2017-04-01T02:24:00Z,28.4330,-82.6670,88.61,1111122 
COMPS,ioos:station:USF.COMPS:ARP:1,2017-04-01T02:30:00Z,28.4330,-82.6670,88.68,1111122 
COMPS,ioos:station:USF.COMPS:ARP:1,2017-04-01T02:36:00Z,28.4330,-82.6670,89.3,1111122 
COMPS,ioos:station:USF.COMPS:ARP:1,2017-04-01T02:42:00Z,28.4330,-82.6670,89.5,1111122 
COMPS,ioos:station:USF.COMPS:ARP:1,2017-04-01T02:48:00Z,28.4330,-82.6670,89.6,1111122 
COMPS,ioos:station:USF.COMPS:ARP:1,2017-04-01T02:54:00Z,28.4330,-82.6670,89.68,1111122 
COMPS,ioos:station:USF.COMPS:ARP:1,2017-04-01T03:00:00Z,28.4330,-82.6670,89.32,1111122 
COMPS,ioos:station:USF.COMPS:ARP:1,2017-04-01T03:06:00Z,28.4330,-82.6670,88.5,1111122 
COMPS,ioos:station:USF.COMPS:ARP:1,2017-04-01T03:12:00Z,28.4330,-82.6670,88.71,1111122 
COMPS,ioos:station:USF.COMPS:ARP:1,2017-04-01T03:18:00Z,28.4330,-82.6670,88.97,1111122 
COMPS,ioos:station:USF.COMPS:ARP:1,2017-04-01T03:24:00Z,28.4330,-82.6670,89.41,1111122 
COMPS,ioos:station:USF.COMPS:ARP:1,2017-04-01T03:30:00Z,28.4330,-82.6670,89.2,1111122 
COMPS,ioos:station:USF.COMPS:ARP:1,2017-04-01T03:36:00Z,28.4330,-82.6670,89.14,1111122 
COMPS,ioos:station:USF.COMPS:ARP:1,2017-04-01T03:42:00Z,28.4330,-82.6670,88.86,1111122 
COMPS,ioos:station:USF.COMPS:ARP:1,2017-04-01T03:48:00Z,28.4330,-82.6670,89.37,1111122 
COMPS,ioos:station:USF.COMPS:ARP:1,2017-04-01T03:54:00Z,28.4330,-82.6670,89.28,1111122 
COMPS,ioos:station:USF.COMPS:ARP:1,2017-04-01T04:00:00Z,28.4330,-82.6670,89.18,1111122 
COMPS,ioos:station:USF.COMPS:ARP:1,2017-04-01T04:06:00Z,28.4330,-82.6670,89.34,1111122 
COMPS,ioos:station:USF.COMPS:ARP:1,2017-04-01T04:12:00Z,28.4330,-82.6670,88.69,1111122 
COMPS,ioos:station:USF.COMPS:ARP:1,2017-04-01T04:18:00Z,28.4330,-82.6670,88.0,1111122 
COMPS,ioos:station:USF.COMPS:ARP:1,2017-04-01T04:24:00Z,28.4330,-82.6670,87.11,1111122 
COMPS,ioos:station:USF.COMPS:ARP:1,2017-04-01T04:30:00Z,28.4330,-82.6670,87.31,1111122 
COMPS,ioos:station:USF.COMPS:ARP:1,2017-04-01T04:36:00Z,28.4330,-82.6670,88.63,1111122 
COMPS,ioos:station:USF.COMPS:ARP:1,2017-04-01T04:42:00Z,28.4330,-82.6670,89.31,1111122 
COMPS,ioos:station:USF.COMPS:ARP:1,2017-04-01T04:48:00Z,28.4330,-82.6670,89.86,1111122 
COMPS,ioos:station:USF.COMPS:ARP:1,2017-04-01T04:54:00Z,28.4330,-82.6670,90.44,1111122 
COMPS,ioos:station:USF.COMPS:ARP:1,2017-04-01T05:00:00Z,28.4330,-82.6670,90.65,1111122 
COMPS,ioos:station:USF.COMPS:ARP:1,2017-04-01T05:06:00Z,28.4330,-82.6670,90.39,1111122 
COMPS,ioos:station:USF.COMPS:ARP:1,2017-04-01T05:12:00Z,28.4330,-82.6670,90.52,1111122 
COMPS,ioos:station:USF.COMPS:ARP:1,2017-04-01T05:18:00Z,28.4330,-82.6670,90.22,1111122 
COMPS,ioos:station:USF.COMPS:ARP:1,2017-04-01T05:24:00Z,28.4330,-82.6670,90.05,1111122 
COMPS,ioos:station:USF.COMPS:ARP:1,2017-04-01T05:30:00Z,28.4330,-82.6670,89.72,1111122 
COMPS,ioos:station:USF.COMPS:ARP:1,2017-04-01T05:36:00Z,28.4330,-82.6670,89.81,1111122 
COMPS,ioos:station:USF.COMPS:ARP:1,2017-04-01T05:42:00Z,28.4330,-82.6670,89.38,1111122 
COMPS,ioos:station:USF.COMPS:ARP:1,2017-04-01T05:48:00Z,28.4330,-82.6670,89.63,1111122 
COMPS,ioos:station:USF.COMPS:ARP:1,2017-04-01T05:54:00Z,28.4330,-82.6670,88.99,1111122 
COMPS,ioos:station:USF.COMPS:ARP:1,2017-04-01T06:00:00Z,28.4330,-82.6670,88.65,1111122 
COMPS,ioos:station:USF.COMPS:ARP:1,2017-04-01T06:06:00Z,28.4330,-82.6670,88.66,1111122 
COMPS,ioos:station:USF.COMPS:ARP:1,2017-04-01T06:12:00Z,28.4330,-82.6670,88.5,1111122 
COMPS,ioos:station:USF.COMPS:ARP:1,2017-04-01T06:18:00Z,28.4330,-82.6670,88.28,1111122 
COMPS,ioos:station:USF.COMPS:ARP:1,2017-04-01T06:24:00Z,28.4330,-82.6670,88.66,1111122 
COMPS,ioos:station:USF.COMPS:ARP:1,2017-04-01T06:30:00Z,28.4330,-82.6670,88.35,1111122 
COMPS,ioos:station:USF.COMPS:ARP:1,2017-04-01T06:36:00Z,28.4330,-82.6670,87.58,1111122 
COMPS,ioos:station:USF.COMPS:ARP:1,2017-04-01T06:42:00Z,28.4330,-82.6670,87.73,1111122 
COMPS,ioos:station:USF.COMPS:ARP:1,2017-04-01T06:48:00Z,28.4330,-82.6670,88.04,1111122 
COMPS,ioos:station:USF.COMPS:ARP:1,2017-04-01T06:54:00Z,28.4330,-82.6670,88.04,1111122 
COMPS,ioos:station:USF.COMPS:ARP:1,2017-04-01T07:00:00Z,28.4330,-82.6670,88.01,1111122 
COMPS,ioos:station:USF.COMPS:ARP:1,2017-04-01T07:06:00Z,28.4330,-82.6670,87.82,1111122 
COMPS,ioos:station:USF.COMPS:ARP:1,2017-04-01T07:12:00Z,28.4330,-82.6670,88.12,1111122 
COMPS,ioos:station:USF.COMPS:ARP:1,2017-04-01T07:18:00Z,28.4330,-82.6670,88.07,1111122 
COMPS,ioos:station:USF.COMPS:ARP:1,2017-04-01T07:24:00Z,28.4330,-82.6670,87.63,1111122 
COMPS,ioos:station:USF.COMPS:ARP:1,2017-04-01T07:30:00Z,28.4330,-82.6670,87.2,1111122 
COMPS,ioos:station:USF.COMPS:ARP:1,2017-04-01T07:36:00Z,28.4330,-82.6670,86.71,1111122 
COMPS,ioos:station:USF.COMPS:ARP:1,2017-04-01T07:42:00Z,28.4330,-82.6670,86.93,1111122 
COMPS,ioos:station:USF.COMPS:ARP:1,2017-04-01T07:48:00Z,28.4330,-82.6670,86.86,1111122 
COMPS,ioos:station:USF.COMPS:ARP:1,2017-04-01T07:54:00Z,28.4330,-82.6670,86.77,1111122 
COMPS,ioos:station:USF.COMPS:ARP:1,2017-04-01T08:00:00Z,28.4330,-82.6670,86.71,1111122 
COMPS,ioos:station:USF.COMPS:ARP:1,2017-04-01T08:06:00Z,28.4330,-82.6670,86.48,1111122 
COMPS,ioos:station:USF.COMPS:ARP:1,2017-04-01T08:12:00Z,28.4330,-82.6670,86.25,1111122 
COMPS,ioos:station:USF.COMPS:ARP:1,2017-04-01T08:18:00Z,28.4330,-82.6670,85.0,1111122 
COMPS,ioos:station:USF.COMPS:ARP:1,2017-04-01T08:24:00Z,28.4330,-82.6670,85.03,1111122 
COMPS,ioos:station:USF.COMPS:ARP:1,2017-04-01T08:30:00Z,28.4330,-82.6670,84.79,1111122 
COMPS,ioos:station:USF.COMPS:ARP:1,2017-04-01T08:36:00Z,28.4330,-82.6670,84.1,1111122 
COMPS,ioos:station:USF.COMPS:ARP:1,2017-04-01T08:42:00Z,28.4330,-82.6670,83.83,1111122 
COMPS,ioos:station:USF.COMPS:ARP:1,2017-04-01T08:48:00Z,28.4330,-82.6670,83.72,1111122 
COMPS,ioos:station:USF.COMPS:ARP:1,2017-04-01T08:54:00Z,28.4330,-82.6670,83.08,1111122 
COMPS,ioos:station:USF.COMPS:ARP:1,2017-04-01T09:00:00Z,28.4330,-82.6670,82.59,1111122 
COMPS,ioos:station:USF.COMPS:ARP:1,2017-04-01T09:06:00Z,28.4330,-82.6670,82.5,1111122 
COMPS,ioos:station:USF.COMPS:ARP:1,2017-04-01T09:12:00Z,28.4330,-82.6670,82.35,1111122 
COMPS,ioos:station:USF.COMPS:ARP:1,2017-04-01T09:18:00Z,28.4330,-82.6670,82.51,1111122 
COMPS,ioos:station:USF.COMPS:ARP:1,2017-04-01T09:24:00Z,28.4330,-82.6670,82.4,1111122 
COMPS,ioos:station:USF.COMPS:ARP:1,2017-04-01T09:30:00Z,28.4330,-82.6670,83.15,1111122 
COMPS,ioos:station:USF.COMPS:ARP:1,2017-04-01T09:36:00Z,28.4330,-82.6670,83.51,1111122 
COMPS,ioos:station:USF.COMPS:ARP:1,2017-04-01T09:42:00Z,28.4330,-82.6670,83.54,1111122 
COMPS,ioos:station:USF.COMPS:ARP:1,2017-04-01T09:48:00Z,28.4330,-82.6670,84.5,1111122 
COMPS,ioos:station:USF.COMPS:ARP:1,2017-04-01T09:54:00Z,28.4330,-82.6670,83.43,1111122 
COMPS,ioos:station:USF.COMPS:ARP:1,2017-04-01T10:00:00Z,28.4330,-82.6670,82.35,1111122 
COMPS,ioos:station:USF.COMPS:ARP:1,2017-04-01T10:06:00Z,28.4330,-82.6670,81.46,1111122 
COMPS,ioos:station:USF.COMPS:ARP:1,2017-04-01T10:12:00Z,28.4330,-82.6670,80.69,1111122 
COMPS,ioos:station:USF.COMPS:ARP:1,2017-04-01T10:18:00Z,28.4330,-82.6670,79.84,1111122 
COMPS,ioos:station:USF.COMPS:ARP:1,2017-04-01T10:24:00Z,28.4330,-82.6670,79.83,1111122 
COMPS,ioos:station:USF.COMPS:ARP:1,2017-04-01T10:30:00Z,28.4330,-82.6670,80.51,1111122 
COMPS,ioos:station:USF.COMPS:ARP:1,2017-04-01T10:36:00Z,28.4330,-82.6670,80.74,1111122 
COMPS,ioos:station:USF.COMPS:ARP:1,2017-04-01T10:42:00Z,28.4330,-82.6670,79.98,1111122 
COMPS,ioos:station:USF.COMPS:ARP:1,2017-04-01T10:48:00Z,28.4330,-82.6670,79.61,1111122 
COMPS,ioos:station:USF.COMPS:ARP:1,2017-04-01T10:54:00Z,28.4330,-82.6670,79.12,1111122 
COMPS,ioos:station:USF.COMPS:ARP:1,2017-04-01T11:00:00Z,28.4330,-82.6670,78.93,1111122 
COMPS,ioos:station:USF.COMPS:ARP:1,2017-04-01T11:06:00Z,28.4330,-82.6670,78.7,1111122 
COMPS,ioos:station:USF.COMPS:ARP:1,2017-04-01T11:12:00Z,28.4330,-82.6670,78.1,1111122 
COMPS,ioos:station:USF.COMPS:ARP:1,2017-04-01T11:18:00Z,28.4330,-82.6670,77.39,1111122 
COMPS,ioos:station:USF.COMPS:ARP:1,2017-04-01T11:24:00Z,28.4330,-82.6670,77.74,1111122 
COMPS,ioos:station:USF.COMPS:ARP:1,2017-04-01T11:30:00Z,28.4330,-82.6670,77.98,1111122 
COMPS,ioos:station:USF.COMPS:ARP:1,2017-04-01T11:36:00Z,28.4330,-82.6670,78.03,1111122 
COMPS,ioos:station:USF.COMPS:ARP:1,2017-04-01T11:42:00Z,28.4330,-82.6670,78.66,1111122 
COMPS,ioos:station:USF.COMPS:ARP:1,2017-04-01T11:48:00Z,28.4330,-82.6670,78.1,1111122 
COMPS,ioos:station:USF.COMPS:ARP:1,2017-04-01T11:54:00Z,28.4330,-82.6670,78.33,1111122 
COMPS,ioos:station:USF.COMPS:ARP:1,2017-04-01T12:00:00Z,28.4330,-82.6670,78.51,1111122 
COMPS,ioos:station:USF.COMPS:ARP:1,2017-04-01T12:06:00Z,28.4330,-82.6670,79.26,1111122 
COMPS,ioos:station:USF.COMPS:ARP:1,2017-04-01T12:12:00Z,28.4330,-82.6670,79.39,1111122 
COMPS,ioos:station:USF.COMPS:ARP:1,2017-04-01T12:18:00Z,28.4330,-82.6670,79.47,1111122 
COMPS,ioos:station:USF.COMPS:ARP:1,2017-04-01T12:24:00Z,28.4330,-82.6670,82.58,1111122 
COMPS,ioos:station:USF.COMPS:ARP:1,2017-04-01T12:30:00Z,28.4330,-82.6670,83.9,1111122 
COMPS,ioos:station:USF.COMPS:ARP:1,2017-04-01T12:36:00Z,28.4330,-82.6670,84.77,1111122 
COMPS,ioos:station:USF.COMPS:ARP:1,2017-04-01T12:42:00Z,28.4330,-82.6670,84.6,1111122 
COMPS,ioos:station:USF.COMPS:ARP:1,2017-04-01T12:48:00Z,28.4330,-82.6670,84.66,1111122 
COMPS,ioos:station:USF.COMPS:ARP:1,2017-04-01T12:54:00Z,28.4330,-82.6670,84.17,1111122 
COMPS,ioos:station:USF.COMPS:ARP:1,2017-04-01T13:00:00Z,28.4330,-82.6670,83.07,1111122 
COMPS,ioos:station:USF.COMPS:ARP:1,2017-04-01T13:06:00Z,28.4330,-82.6670,81.55,1111122 
COMPS,ioos:station:USF.COMPS:ARP:1,2017-04-01T13:12:00Z,28.4330,-82.6670,81.39,1111122 
COMPS,ioos:station:USF.COMPS:ARP:1,2017-04-01T13:18:00Z,28.4330,-82.6670,80.38,1111122 
COMPS,ioos:station:USF.COMPS:ARP:1,2017-04-01T13:24:00Z,28.4330,-82.6670,78.01,1111122 
COMPS,ioos:station:USF.COMPS:ARP:1,2017-04-01T13:30:00Z,28.4330,-82.6670,75.87,1111122 
COMPS,ioos:station:USF.COMPS:ARP:1,2017-04-01T13:36:00Z,28.4330,-82.6670,74.37,1111122 
COMPS,ioos:station:USF.COMPS:ARP:1,2017-04-01T13:42:00Z,28.4330,-82.6670,74.62,1111122 
COMPS,ioos:station:USF.COMPS:ARP:1,2017-04-01T13:48:00Z,28.4330,-82.6670,73.33,1111122 
COMPS,ioos:station:USF.COMPS:ARP:1,2017-04-01T13:54:00Z,28.4330,-82.6670,71.18,1111122 
COMPS,ioos:station:USF.COMPS:ARP:1,2017-04-01T14:00:00Z,28.4330,-82.6670,69.94,1111122 
COMPS,ioos:station:USF.COMPS:ARP:1,2017-04-01T14:06:00Z,28.4330,-82.6670,70.06,1111122 
COMPS,ioos:station:USF.COMPS:ARP:1,2017-04-01T14:12:00Z,28.4330,-82.6670,69.23,1111122 
COMPS,ioos:station:USF.COMPS:ARP:1,2017-04-01T14:18:00Z,28.4330,-82.6670,69.52,1111122 
COMPS,ioos:station:USF.COMPS:ARP:1,2017-04-01T14:24:00Z,28.4330,-82.6670,70.49,1111122 
COMPS,ioos:station:USF.COMPS:ARP:1,2017-04-01T14:30:00Z,28.4330,-82.6670,69.72,1111122 
COMPS,ioos:station:USF.COMPS:ARP:1,2017-04-01T14:36:00Z,28.4330,-82.6670,70.6,1111122 
COMPS,ioos:station:USF.COMPS:ARP:1,2017-04-01T14:42:00Z,28.4330,-82.6670,71.29,1111122 
COMPS,ioos:station:USF.COMPS:ARP:1,2017-04-01T14:48:00Z,28.4330,-82.6670,71.69,1111122 
COMPS,ioos:station:USF.COMPS:ARP:1,2017-04-01T14:54:00Z,28.4330,-82.6670,71.2,1111122 
COMPS,ioos:station:USF.COMPS:ARP:1,2017-04-01T15:00:00Z,28.4330,-82.6670,71.25,1111122 
COMPS,ioos:station:USF.COMPS:ARP:1,2017-04-01T15:06:00Z,28.4330,-82.6670,71.1,1111122 
COMPS,ioos:station:USF.COMPS:ARP:1,2017-04-01T15:12:00Z,28.4330,-82.6670,70.72,1111122 
COMPS,ioos:station:USF.COMPS:ARP:1,2017-04-01T15:18:00Z,28.4330,-82.6670,71.01,1111122 
COMPS,ioos:station:USF.COMPS:ARP:1,2017-04-01T15:24:00Z,28.4330,-82.6670,69.2,1111122 
COMPS,ioos:station:USF.COMPS:ARP:1,2017-04-01T15:30:00Z,28.4330,-82.6670,68.85,1111122 
COMPS,ioos:station:USF.COMPS:ARP:1,2017-04-01T15:36:00Z,28.4330,-82.6670,68.48,1111122 
COMPS,ioos:station:USF.COMPS:ARP:1,2017-04-01T15:42:00Z,28.4330,-82.6670,69.65,1111122 
COMPS,ioos:station:USF.COMPS:ARP:1,2017-04-01T15:48:00Z,28.4330,-82.6670,68.86,1111122 
COMPS,ioos:station:USF.COMPS:ARP:1,2017-04-01T15:54:00Z,28.4330,-82.6670,68.77,1111122 
COMPS,ioos:station:USF.COMPS:ARP:1,2017-04-01T16:00:00Z,28.4330,-82.6670,70.22,1111122 
COMPS,ioos:station:USF.COMPS:ARP:1,2017-04-01T16:06:00Z,28.4330,-82.6670,71.2,1111122 
COMPS,ioos:station:USF.COMPS:ARP:1,2017-04-01T16:12:00Z,28.4330,-82.6670,71.22,1111122 
COMPS,ioos:station:USF.COMPS:ARP:1,2017-04-01T16:18:00Z,28.4330,-82.6670,70.58,1111122 
COMPS,ioos:station:USF.COMPS:ARP:1,2017-04-01T16:24:00Z,28.4330,-82.6670,69.97,1111122 
COMPS,ioos:station:USF.COMPS:ARP:1,2017-04-01T16:30:00Z,28.4330,-82.6670,70.91,1111122 
COMPS,ioos:station:USF.COMPS:ARP:1,2017-04-01T16:36:00Z,28.4330,-82.6670,70.33,1111122 
COMPS,ioos:station:USF.COMPS:ARP:1,2017-04-01T16:42:00Z,28.4330,-82.6670,72.13,1111122 
COMPS,ioos:station:USF.COMPS:ARP:1,2017-04-01T16:48:00Z,28.4330,-82.6670,70.7,1111122 
COMPS,ioos:station:USF.COMPS:ARP:1,2017-04-01T16:54:00Z,28.4330,-82.6670,71.63,1111122 
COMPS,ioos:station:USF.COMPS:ARP:1,2017-04-01T17:00:00Z,28.4330,-82.6670,71.37,1111122 
COMPS,ioos:station:USF.COMPS:ARP:1,2017-04-01T17:06:00Z,28.4330,-82.6670,73.03,1111122 
COMPS,ioos:station:USF.COMPS:ARP:1,2017-04-01T17:12:00Z,28.4330,-82.6670,71.91,1111122 
COMPS,ioos:station:USF.COMPS:ARP:1,2017-04-01T17:18:00Z,28.4330,-82.6670,72.19,1111122 
COMPS,ioos:station:USF.COMPS:ARP:1,2017-04-01T17:24:00Z,28.4330,-82.6670,73.51,1111122 
COMPS,ioos:station:USF.COMPS:ARP:1,2017-04-01T17:30:00Z,28.4330,-82.6670,72.37,1111122 
COMPS,ioos:station:USF.COMPS:ARP:1,2017-04-01T17:36:00Z,28.4330,-82.6670,71.75,1111122 
COMPS,ioos:station:USF.COMPS:ARP:1,2017-04-01T17:42:00Z,28.4330,-82.6670,72.57,1111122 
COMPS,ioos:station:USF.COMPS:ARP:1,2017-04-01T17:48:00Z,28.4330,-82.6670,72.26,1111122 
COMPS,ioos:station:USF.COMPS:ARP:1,2017-04-01T17:54:00Z,28.4330,-82.6670,71.46,1111122 
COMPS,ioos:station:USF.COMPS:ARP:1,2017-04-01T18:00:00Z,28.4330,-82.6670,70.27,1111122 
COMPS,ioos:station:USF.COMPS:ARP:1,2017-04-01T18:06:00Z,28.4330,-82.6670,72.18,1111122 
COMPS,ioos:station:USF.COMPS:ARP:1,2017-04-01T18:12:00Z,28.4330,-82.6670,70.41,1111122 
COMPS,ioos:station:USF.COMPS:ARP:1,2017-04-01T18:18:00Z,28.4330,-82.6670,72.29,1111122 
COMPS,ioos:station:USF.COMPS:ARP:1,2017-04-01T18:24:00Z,28.4330,-82.6670,71.76,1111122 
COMPS,ioos:station:USF.COMPS:ARP:1,2017-04-01T18:30:00Z,28.4330,-82.6670,72.22,1111122 
COMPS,ioos:station:USF.COMPS:ARP:1,2017-04-01T18:36:00Z,28.4330,-82.6670,70.76,1111122 
COMPS,ioos:station:USF.COMPS:ARP:1,2017-04-01T18:42:00Z,28.4330,-82.6670,72.14,1111122 
COMPS,ioos:station:USF.COMPS:ARP:1,2017-04-01T18:48:00Z,28.4330,-82.6670,72.19,1111122 
COMPS,ioos:station:USF.COMPS:ARP:1,2017-04-01T18:54:00Z,28.4330,-82.6670,72.0,1111122 
COMPS,ioos:station:USF.COMPS:ARP:1,2017-04-01T19:00:00Z,28.4330,-82.6670,71.69,1111122 
COMPS,ioos:station:USF.COMPS:ARP:1,2017-04-01T19:06:00Z,28.4330,-82.6670,71.11,1111122 
COMPS,ioos:station:USF.COMPS:ARP:1,2017-04-01T19:12:00Z,28.4330,-82.6670,71.33,1111122 
COMPS,ioos:station:USF.COMPS:ARP:1,2017-04-01T19:18:00Z,28.4330,-82.6670,71.62,1111122 
COMPS,ioos:station:USF.COMPS:ARP:1,2017-04-01T19:24:00Z,28.4330,-82.6670,70.66,1111122 
COMPS,ioos:station:USF.COMPS:ARP:1,2017-04-01T19:30:00Z,28.4330,-82.6670,69.18,1111122 
COMPS,ioos:station:USF.COMPS:ARP:1,2017-04-01T19:36:00Z,28.4330,-82.6670,70.39,1111122 
COMPS,ioos:station:USF.COMPS:ARP:1,2017-04-01T19:42:00Z,28.4330,-82.6670,69.51,1111122 
COMPS,ioos:station:USF.COMPS:ARP:1,2017-04-01T19:48:00Z,28.4330,-82.6670,69.27,1111122 
COMPS,ioos:station:USF.COMPS:ARP:1,2017-04-01T19:54:00Z,28.4330,-82.6670,68.52,1111122 
COMPS,ioos:station:USF.COMPS:ARP:1,2017-04-01T20:00:00Z,28.4330,-82.6670,69.79,1111122 
COMPS,ioos:station:USF.COMPS:ARP:1,2017-04-01T20:06:00Z,28.4330,-82.6670,69.23,1111122 
COMPS,ioos:station:USF.COMPS:ARP:1,2017-04-01T20:12:00Z,28.4330,-82.6670,69.14,1111122 
COMPS,ioos:station:USF.COMPS:ARP:1,2017-04-01T20:18:00Z,28.4330,-82.6670,69.58,1111122 
COMPS,ioos:station:USF.COMPS:ARP:1,2017-04-01T20:24:00Z,28.4330,-82.6670,69.93,1111122 
COMPS,ioos:station:USF.COMPS:ARP:1,2017-04-01T20:30:00Z,28.4330,-82.6670,69.63,1111122 
COMPS,ioos:station:USF.COMPS:ARP:1,2017-04-01T20:36:00Z,28.4330,-82.6670,70.31,1111122 
COMPS,ioos:station:USF.COMPS:ARP:1,2017-04-01T20:42:00Z,28.4330,-82.6670,70.47,1111122 
COMPS,ioos:station:USF.COMPS:ARP:1,2017-04-01T20:48:00Z,28.4330,-82.6670,70.48,1111122 
COMPS,ioos:station:USF.COMPS:ARP:1,2017-04-01T20:54:00Z,28.4330,-82.6670,70.5,1111122 
COMPS,ioos:station:USF.COMPS:ARP:1,2017-04-01T21:00:00Z,28.4330,-82.6670,70.71,1111122 
COMPS,ioos:station:USF.COMPS:ARP:1,2017-04-01T21:06:00Z,28.4330,-82.6670,70.73,1111122 
COMPS,ioos:station:USF.COMPS:ARP:1,2017-04-01T21:12:00Z,28.4330,-82.6670,71.02,1111122 
COMPS,ioos:station:USF.COMPS:ARP:1,2017-04-01T21:18:00Z,28.4330,-82.6670,70.66,1111122 
COMPS,ioos:station:USF.COMPS:ARP:1,2017-04-01T21:24:00Z,28.4330,-82.6670,71.24,1111122 
COMPS,ioos:station:USF.COMPS:ARP:1,2017-04-01T21:30:00Z,28.4330,-82.6670,70.36,1111122 
COMPS,ioos:station:USF.COMPS:ARP:1,2017-04-01T21:36:00Z,28.4330,-82.6670,71.03,1111122 
COMPS,ioos:station:USF.COMPS:ARP:1,2017-04-01T21:42:00Z,28.4330,-82.6670,70.97,1111122 
COMPS,ioos:station:USF.COMPS:ARP:1,2017-04-01T21:48:00Z,28.4330,-82.6670,70.91,1111122 
COMPS,ioos:station:USF.COMPS:ARP:1,2017-04-01T21:54:00Z,28.4330,-82.6670,70.62,1111122 
COMPS,ioos:station:USF.COMPS:ARP:1,2017-04-01T22:00:00Z,28.4330,-82.6670,70.15,1111122 
COMPS,ioos:station:USF.COMPS:ARP:1,2017-04-01T22:06:00Z,28.4330,-82.6670,70.07,1111122 
COMPS,ioos:station:USF.COMPS:ARP:1,2017-04-01T22:12:00Z,28.4330,-82.6670,69.96,1111122 
COMPS,ioos:station:USF.COMPS:ARP:1,2017-04-01T22:18:00Z,28.4330,-82.6670,69.32,1111122 
COMPS,ioos:station:USF.COMPS:ARP:1,2017-04-01T22:24:00Z,28.4330,-82.6670,71.19,1111122 
COMPS,ioos:station:USF.COMPS:ARP:1,2017-04-01T22:30:00Z,28.4330,-82.6670,69.9,1111122 
COMPS,ioos:station:USF.COMPS:ARP:1,2017-04-01T22:36:00Z,28.4330,-82.6670,70.15,1111122 
COMPS,ioos:station:USF.COMPS:ARP:1,2017-04-01T22:42:00Z,28.4330,-82.6670,69.85,1111122 
COMPS,ioos:station:USF.COMPS:ARP:1,2017-04-01T22:48:00Z,28.4330,-82.6670,69.92,1111122 
COMPS,ioos:station:USF.COMPS:ARP:1,2017-04-01T22:54:00Z,28.4330,-82.6670,70.14,1111122 
COMPS,ioos:station:USF.COMPS:ARP:1,2017-04-01T23:00:00Z,28.4330,-82.6670,70.63,1111122 
COMPS,ioos:station:USF.COMPS:ARP:1,2017-04-01T23:06:00Z,28.4330,-82.6670,72.06,1111122 
COMPS,ioos:station:USF.COMPS:ARP:1,2017-04-01T23:12:00Z,28.4330,-82.6670,71.04,1111122 
COMPS,ioos:station:USF.COMPS:ARP:1,2017-04-01T23:18:00Z,28.4330,-82.6670,71.35,1111122 
COMPS,ioos:station:USF.COMPS:ARP:1,2017-04-01T23:24:00Z,28.4330,-82.6670,72.31,1111122 
COMPS,ioos:station:USF.COMPS:ARP:1,2017-04-01T23:30:00Z,28.4330,-82.6670,71.79,1111122 
COMPS,ioos:station:USF.COMPS:ARP:1,2017-04-01T23:36:00Z,28.4330,-82.6670,71.65,1111122 
COMPS,ioos:station:USF.COMPS:ARP:1,2017-04-01T23:42:00Z,28.4330,-82.6670,69.61,1111122 
COMPS,ioos:station:USF.COMPS:ARP:1,2017-04-01T23:48:00Z,28.4330,-82.6670,69.62,1111122 
COMPS,ioos:station:USF.COMPS:ARP:1,2017-04-01T23:54:00Z,28.4330,-82.6670,69.27,1111122 
COMPS,ioos:station:USF.COMPS:ARP:1,2017-04-02T00:00:00Z,28.4330,-82.6670,68.72,1111122 
COMPS,ioos:station:USF.COMPS:ARP:1,2017-04-02T00:06:00Z,28.4330,-82.6670,68.54,1111122 
COMPS,ioos:station:USF.COMPS:ARP:1,2017-04-02T00:12:00Z,28.4330,-82.6670,68.5,1111122 
COMPS,ioos:station:USF.COMPS:ARP:1,2017-04-02T00:18:00Z,28.4330,-82.6670,67.79,1111122 
COMPS,ioos:station:USF.COMPS:ARP:1,2017-04-02T00:24:00Z,28.4330,-82.6670,69.19,1111122 
COMPS,ioos:station:USF.COMPS:ARP:1,2017-04-02T00:30:00Z,28.4330,-82.6670,68.5,1111122 
COMPS,ioos:station:USF.COMPS:ARP:1,2017-04-02T00:36:00Z,28.4330,-82.6670,67.98,1111122 
COMPS,ioos:station:USF.COMPS:ARP:1,2017-04-02T00:42:00Z,28.4330,-82.6670,69.37,1111122 
COMPS,ioos:station:USF.COMPS:ARP:1,2017-04-02T00:48:00Z,28.4330,-82.6670,69.4,1111122 
COMPS,ioos:station:USF.COMPS:ARP:1,2017-04-02T00:54:00Z,28.4330,-82.6670,68.28,1111122 
COMPS,ioos:station:USF.COMPS:ARP:1,2017-04-02T01:00:00Z,28.4330,-82.6670,66.8,1111122 
COMPS,ioos:station:USF.COMPS:ARP:1,2017-04-02T01:06:00Z,28.4330,-82.6670,67.62,1111122 
COMPS,ioos:station:USF.COMPS:ARP:1,2017-04-02T01:12:00Z,28.4330,-82.6670,67.83,1111122 
COMPS,ioos:station:USF.COMPS:ARP:1,2017-04-02T01:18:00Z,28.4330,-82.6670,69.04,1111122 
COMPS,ioos:station:USF.COMPS:ARP:1,2017-04-02T01:24:00Z,28.4330,-82.6670,68.96,1111122 
COMPS,ioos:station:USF.COMPS:ARP:1,2017-04-02T01:30:00Z,28.4330,-82.6670,69.66,1111122 
COMPS,ioos:station:USF.COMPS:ARP:1,2017-04-02T01:36:00Z,28.4330,-82.6670,70.83,1111122 
COMPS,ioos:station:USF.COMPS:ARP:1,2017-04-02T01:42:00Z,28.4330,-82.6670,69.44,1111122 
COMPS,ioos:station:USF.COMPS:ARP:1,2017-04-02T01:48:00Z,28.4330,-82.6670,70.9,1111122 
COMPS,ioos:station:USF.COMPS:ARP:1,2017-04-02T01:54:00Z,28.4330,-82.6670,73.01,1111122 
COMPS,ioos:station:USF.COMPS:ARP:1,2017-04-02T02:00:00Z,28.4330,-82.6670,78.16,1111122 
COMPS,ioos:station:USF.COMPS:ARP:1,2017-04-02T02:06:00Z,28.4330,-82.6670,80.31,1111122 
COMPS,ioos:station:USF.COMPS:ARP:1,2017-04-02T02:12:00Z,28.4330,-82.6670,81.29,1111122 
COMPS,ioos:station:USF.COMPS:ARP:1,2017-04-02T02:18:00Z,28.4330,-82.6670,82.71,1111122 
COMPS,ioos:station:USF.COMPS:ARP:1,2017-04-02T02:24:00Z,28.4330,-82.6670,84.05,1111122 
COMPS,ioos:station:USF.COMPS:ARP:1,2017-04-02T02:30:00Z,28.4330,-82.6670,83.34,1111122 
COMPS,ioos:station:USF.COMPS:ARP:1,2017-04-02T02:36:00Z,28.4330,-82.6670,83.61,1111122 
COMPS,ioos:station:USF.COMPS:ARP:1,2017-04-02T02:42:00Z,28.4330,-82.6670,84.19,1111122 
COMPS,ioos:station:USF.COMPS:ARP:1,2017-04-02T02:48:00Z,28.4330,-82.6670,83.67,1111122 
COMPS,ioos:station:USF.COMPS:ARP:1,2017-04-02T02:54:00Z,28.4330,-82.6670,83.42,1111122 
COMPS,ioos:station:USF.COMPS:ARP:1,2017-04-02T03:00:00Z,28.4330,-82.6670,85.52,1111122 
COMPS,ioos:station:USF.COMPS:ARP:1,2017-04-02T03:06:00Z,28.4330,-82.6670,86.63,1111122 